• Em Portugal
  • Lista de países
  • Para 7 dias
  • Temperatura da água
  • Mapas de satélite
  • Mapa do tempo
  • Widgets de tempo
  • user-avatar
    Iniciar Sessão

    Previsão horária em Kabul

    Hoje, 20 Janeiro, Sábado

    Tempo Temperatura Precipitação Vento Pressão Humidade
    00:00 +3°C° 0 mm 1 m/s 608 mmHg 23%
    01:00 +3°C° 0 mm 1 m/s 608 mmHg 22%
    02:00 +3°C° 0 mm 1 m/s 608 mmHg 22%
    03:00 +3°C° 0 mm 1 m/s 608 mmHg 21%
    04:00 +2°C° 0 mm 1 m/s 607 mmHg 20%
    05:00 +2°C° 0 mm 1 m/s 607 mmHg 20%
    06:00 +2°C° 0 mm 1 m/s 607 mmHg 19%
    07:00 +2°C° 0 mm 1 m/s 607 mmHg 18%
    08:00 +3°C° 0 mm 1 m/s 607 mmHg 17%
    09:00 +5°C° 0 mm 1 m/s 608 mmHg 15%
    10:00 +8°C° 0 mm 1 m/s 609 mmHg 12%
    11:00 +11°C° 0 mm 1 m/s 610 mmHg 10%
    12:00 +11°C° 0 mm 1 m/s 609 mmHg 10%
    13:00 +12°C° 0 mm 1 m/s 609 mmHg 9%
    14:00 +13°C° 0 mm 1 m/s 609 mmHg 9%
    15:00 +12°C° 0 mm 1 m/s 608 mmHg 11%
    16:00 +11°C° 0 mm 1 m/s 608 mmHg 14%
    17:00 +10°C° 0 mm 1 m/s 607 mmHg 16%
    18:00 +8°C° 0 mm 1 m/s 607 mmHg 16%
    19:00 +7°C° 0 mm 1 m/s 607 mmHg 16%
    20:00 +6°C° 0 mm 1 m/s 606 mmHg 16%
    21:00 +5°C° 0 mm 1 m/s 606 mmHg 15%
    22:00 +5°C° 0 mm 1 m/s 606 mmHg 15%
    23:00 +4°C° 0 mm 1 m/s 606 mmHg 15%

    Amanhã, 21 Janeiro, Domingo

    Tempo Temperatura Precipitação Vento Pressão Humidade
    00:00 +4°C° 0 mm 1 m/s 605 mmHg 15%
    01:00 +4°C° 0 mm 1 m/s 605 mmHg 14%
    02:00 +3°C° 0 mm 1 m/s 605 mmHg 14%
    03:00 +3°C° 0 mm 1 m/s 605 mmHg 14%
    04:00 +3°C° 0 mm 1 m/s 605 mmHg 13%
    05:00 +2°C° 0 mm 1 m/s 604 mmHg 13%
    06:00 +2°C° 0 mm 1 m/s 604 mmHg 13%
    07:00 +1°C° 0 mm 2 m/s 605 mmHg 12%
    08:00 +1°C° 0 mm 2 m/s 605 mmHg 12%
    09:00 +4°C° 0 mm 2 m/s 606 mmHg 11%
    10:00 +6°C° 0 mm 2 m/s 607 mmHg 9%
    11:00 +8°C° 0 mm 2 m/s 607 mmHg 8%
    12:00 +9°C° 0 mm 2 m/s 607 mmHg 8%
    13:00 +9°C° 0 mm 2 m/s 607 mmHg 8%
    14:00 +10°C° 0 mm 2 m/s 607 mmHg 8%
    15:00 +9°C° 0 mm 2 m/s 606 mmHg 9%
    16:00 +8°C° 0 mm 2 m/s 606 mmHg 10%
    17:00 +8°C° 0 mm 2 m/s 606 mmHg 11%
    18:00 +6°C° 0 mm 2 m/s 606 mmHg 12%
    19:00 +5°C° 0 mm 2 m/s 606 mmHg 12%
    20:00 +4°C° 0 mm 2 m/s 606 mmHg 12%
    21:00 +3°C° 0 mm 2 m/s 606 mmHg 12%
    22:00 +3°C° 0 mm 2 m/s 605 mmHg 12%
    23:00 +2°C° 0 mm 2 m/s 605 mmHg 12%

    Depois de amanhã, 22 Janeiro, Segunda-feira

    Tempo Temperatura Precipitação Vento Pressão Humidade
    00:00 +2°C° 0 mm 2 m/s 605 mmHg 12%
    01:00 +2°C° 0 mm 2 m/s 605 mmHg 12%
    02:00 +1°C° 0 mm 2 m/s 605 mmHg 13%
    03:00 +1°C° 0 mm 2 m/s 604 mmHg 13%
    04:00 +1°C° 0 mm 2 m/s 604 mmHg 13%
    05:00 +1°C° 0 mm 2 m/s 604 mmHg 14%
    06:00 +1°C° 0 mm 2 m/s 604 mmHg 14%
    07:00 +1°C° 0 mm 2 m/s 604 mmHg 14%
    08:00 +1°C° 0 mm 2 m/s 604 mmHg 14%
    09:00 +2°C° 0 mm 2 m/s 605 mmHg 13%
    10:00 +4°C° 0 mm 2 m/s 605 mmHg 12%
    11:00 +6°C° 0 mm 2 m/s 606 mmHg 11%
    12:00 +7°C° 0 mm 3 m/s 605 mmHg 11%
    13:00 +7°C° 0 mm 3 m/s 605 mmHg 11%
    14:00 +8°C° 0 mm 3 m/s 605 mmHg 11%
    15:00 +7°C° 0 mm 3 m/s 604 mmHg 12%
    16:00 +7°C° 0 mm 3 m/s 604 mmHg 13%
    17:00 +5°C° 0 mm 3 m/s 604 mmHg 13%
    18:00 +4°C° 0 mm 3 m/s 604 mmHg 13%
    19:00 +4°C° 0 mm 2 m/s 604 mmHg 13%
    20:00 +3°C° 0 mm 2 m/s 604 mmHg 13%
    21:00 +2°C° 0 mm 2 m/s 604 mmHg 12%
    22:00 +2°C° 0 mm 2 m/s 604 mmHg 12%
    23:00 +2°C° 0 mm 2 m/s 604 mmHg 11%

    23 Janeiro, Terça-feira

    Tempo Temperatura Precipitação Vento Pressão Humidade
    00:00 +1°C° 0 mm 2 m/s 604 mmHg 11%
    01:00 +1°C° 0 mm 2 m/s 604 mmHg 10%
    02:00 +1°C° 0 mm 2 m/s 604 mmHg 10%
    03:00 -1°C° 0 mm 2 m/s 604 mmHg 10%
    04:00 -1°C° 0 mm 2 m/s 604 mmHg 10%
    05:00 -1°C° 0 mm 2 m/s 603 mmHg 11%
    06:00 -1°C° 0 mm 2 m/s 604 mmHg 11%
    07:00 -1°C° 0 mm 2 m/s 604 mmHg 12%
    08:00 +1°C° 0 mm 1 m/s 604 mmHg 12%
    09:00 +2°C° 0 mm 1 m/s 605 mmHg 12%
    10:00 +4°C° 0 mm 1 m/s 605 mmHg 11%
    11:00 +6°C° 0 mm 1 m/s 606 mmHg 11%
    12:00 +7°C° 0 mm 1 m/s 605 mmHg 11%
    13:00 +7°C° 0 mm 1 m/s 605 mmHg 12%
    14:00 +8°C° 0 mm 1 m/s 605 mmHg 12%
    15:00 +8°C° 0 mm 1 m/s 604 mmHg 14%
    16:00 +7°C° 0 mm 1 m/s 604 mmHg 16%
    17:00 +7°C° 0 mm 1 m/s 604 mmHg 17%
    18:00 +6°C° 0 mm 1 m/s 604 mmHg 19%
    19:00 +5°C° 0 mm 1 m/s 604 mmHg 20%
    20:00 +4°C° 0 mm 1 m/s 604 mmHg 21%
    21:00 +3°C° 0 mm 1 m/s 604 mmHg 22%
    22:00 +3°C° 0 mm 1 m/s 604 mmHg 22%
    23:00 +3°C° 0 mm 1 m/s 604 mmHg 22%

    24 Janeiro, Quarta-feira

    Tempo Temperatura Precipitação Vento Pressão Humidade
    00:00 +1°C° 0 mm 2 m/s 604 mmHg 22%
    01:00 +1°C° 0 mm 2 m/s 604 mmHg 22%
    02:00 +1°C° 0 mm 2 m/s 603 mmHg 22%
    03:00 +1°C° 0 mm 2 m/s 603 mmHg 22%
    04:00 +1°C° 0 mm 2 m/s 603 mmHg 22%
    05:00 +1°C° 0 mm 2 m/s 603 mmHg 22%
    06:00 +1°C° 0 mm 2 m/s 603 mmHg 22%
    07:00 +1°C° 0 mm 2 m/s 604 mmHg 22%
    08:00 +1°C° 0 mm 2 m/s 604 mmHg 21%
    09:00 +3°C° 0 mm 2 m/s 605 mmHg 19%
    10:00 +6°C° 0 mm 1 m/s 605 mmHg 17%
    11:00 +8°C° 0 mm 1 m/s 606 mmHg 15%
    12:00 +9°C° 0 mm 1 m/s 606 mmHg 15%
    13:00 +9°C° 0 mm 1 m/s 605 mmHg 14%
    14:00 +10°C° 0 mm 1 m/s 605 mmHg 14%
    15:00 +10°C° 0 mm 1 m/s 605 mmHg 16%
    16:00 +9°C° 0 mm 1 m/s 605 mmHg 18%
    17:00 +9°C° 0 mm 1 m/s 605 mmHg 19%
    18:00 +7°C° 0 mm 1 m/s 605 mmHg 21%
    19:00 +6°C° 0 mm 1 m/s 605 mmHg 22%
    20:00 +4°C° 0 mm 1 m/s 605 mmHg 24%
    21:00 +4°C° 0 mm 1 m/s 605 mmHg 24%
    22:00 +3°C° 0 mm 1 m/s 605 mmHg 25%
    23:00 +3°C° 0 mm 1 m/s 605 mmHg 25%

    25 Janeiro, Quinta-feira

    Tempo Temperatura Precipitação Vento Pressão Humidade
    00:00 +3°C° 0 mm 1 m/s 604 mmHg 26%
    01:00 +2°C° 0 mm 1 m/s 604 mmHg 27%
    02:00 +2°C° 0 mm 1 m/s 604 mmHg 27%
    03:00 +2°C° 0 mm 1 m/s 604 mmHg 28%
    04:00 +1°C° 0 mm 2 m/s 604 mmHg 28%
    05:00 +1°C° 0 mm 2 m/s 604 mmHg 29%
    06:00 +1°C° 0 mm 2 m/s 604 mmHg 29%
    07:00 +1°C° 0 mm 2 m/s 605 mmHg 29%
    08:00 +1°C° 0 mm 2 m/s 605 mmHg 29%
    09:00 +3°C° 0 mm 2 m/s 606 mmHg 26%
    10:00 +5°C° 0 mm 2 m/s 606 mmHg 23%
    11:00 +7°C° 0 mm 2 m/s 607 mmHg 19%
    12:00 +8°C° 0 mm 2 m/s 607 mmHg 18%
    13:00 +9°C° 0 mm 2 m/s 606 mmHg 17%
    14:00 +10°C° 0 mm 2 m/s 606 mmHg 16%
    15:00 +9°C° 0 mm 2 m/s 606 mmHg 18%
    16:00 +9°C° 0 mm 2 m/s 606 mmHg 19%
    17:00 +8°C° 0 mm 2 m/s 606 mmHg 20%
    18:00 +7°C° 0 mm 2 m/s 606 mmHg 22%
    19:00 +6°C° 0 mm 2 m/s 606 mmHg 24%
    20:00 +4°C° 0 mm 2 m/s 606 mmHg 26%
    21:00 +4°C° 0 mm 2 m/s 606 mmHg 27%
    22:00 +3°C° 0 mm 2 m/s 606 mmHg 28%
    23:00 +2°C° 0 mm 3 m/s 606 mmHg 29%
    Mostrar mais